Location: Springfield
(37.2150°N, 93.2980°W)
Time: 21:41:04
(UTC-05:00)

Cosmos 1869 - Visible Passes

Search period start: 21 April 2019 00:00
Search period end: 01 May 2019 00:00
Orbit: 537 x 547 km, 82.5° (Epoch: 21 April)

Date Brightness Start Highest point End Pass type
(mag) Time Alt. Az. Time Alt. Az. Time Alt. Az.
21 Apr 4.9 21:09:37 18° ENE 21:09:37 18° ENE 21:11:39 10° NE visible
21 Apr 5.3 22:45:06 25° WNW 22:45:06 25° WNW 22:48:16 10° NNW visible
22 Apr 4.7 21:02:00 19° E 21:02:06 19° E 21:04:55 10° NE visible
22 Apr 5.3 22:37:30 23° W 22:38:10 24° WNW 22:41:26 10° NNW visible
23 Apr 4.7 20:54:16 18° ESE 20:55:18 19° E 20:58:09 10° NE visible
23 Apr 5.5 22:29:45 18° WSW 22:31:23 24° WNW 22:34:36 10° NNW visible
24 Apr 4.7 20:46:23 14° SE 20:48:30 20° E 20:51:25 10° NE visible
24 Apr 5.5 22:21:51 12° SW 22:24:35 23° WNW 22:27:47 10° NNW visible
25 Apr 4.6 20:38:45 10° SE 20:41:42 20° E 20:44:39 10° NE visible
25 Apr 5.6 22:14:39 10° SW 22:17:48 22° WNW 22:20:57 10° NNW visible
26 Apr 4.6 20:31:54 10° SE 20:34:54 21° E 20:37:54 10° NE visible
26 Apr 5.7 22:07:55 10° SW 22:11:01 22° WNW 22:14:08 10° NNW visible
27 Apr 4.6 20:25:03 10° SE 20:28:05 22° E 20:31:09 10° NE visible
27 Apr 5.8 22:01:10 10° SW 22:04:14 21° WNW 22:07:18 10° NNW visible
28 Apr 5.9 21:54:25 10° SW 21:57:26 21° WNW 22:00:28 10° NNW visible
29 Apr 5.9 21:47:41 10° SW 21:50:38 20° WNW 21:53:38 10° NNW visible
30 Apr 6.0 21:40:56 10° WSW 21:43:51 20° WNW 21:46:48 10° NNW visible
